Location: Amherst
(42.3800°N, 72.5240°W)
Time: 14:50:43
(UTC-04:00)

ISS - Visible Passes

Search period start: 20 July 2017 00:00
Search period end: 30 July 2017 00:00
Orbit: 400 x 408 km, 51.6° (Epoch: 20 July)

Date Brightness Start Highest point End Pass type
(mag) Time Alt. Az. Time Alt. Az. Time Alt. Az.
20 Jul -1.2 01:30:42 18° NNW 01:31:13 19° NNW 01:33:39 10° NE visible
20 Jul -0.8 03:06:18 10° NW 03:08:34 17° N 03:10:50 10° NE visible
20 Jul -2.5 04:42:31 10° NW 04:45:39 43° NNE 04:48:48 10° E visible
21 Jul -1.2 00:39:44 20° NNE 00:39:44 20° NNE 00:41:25 10° NE visible
21 Jul -0.7 02:13:51 10° NW 02:15:59 16° N 02:18:07 10° NE visible
21 Jul -1.7 03:50:19 10° NW 03:53:13 29° NNE 03:56:08 10° E visible
21 Jul -1.1 23:48:22 16° NE 23:48:22 16° NE 23:49:12 10° NE visible
22 Jul -0.8 01:21:13 10° NW 01:23:23 16° N 01:25:33 10° NE visible
22 Jul -1.2 02:58:05 10° NW 03:00:43 22° NNE 03:03:20 10° ENE visible
22 Jul -3.9 04:34:15 10° NW 04:37:32 89° W 04:40:48 10° SE visible
22 Jul -2.4 21:15:09 10° S 21:17:32 19° SE 21:19:56 10° E visible
22 Jul -3.1 22:50:34 10° WSW 22:53:46 52° NNW 22:56:57 10° NE visible
23 Jul -0.9 00:28:26 10° WNW 00:30:47 18° N 00:33:07 10° NE visible
23 Jul -0.9 02:05:48 10° NW 02:08:08 18° N 02:10:29 10° NE visible
23 Jul -2.9 03:41:58 10° NW 03:45:10 51° NNE 03:48:22 10° ESE visible
23 Jul -4.0 21:58:09 10° SW 22:01:23 87° SE 22:04:39 10° ENE visible
23 Jul -1.2 23:35:34 10° WNW 23:38:12 22° NNW 23:40:49 10° NE visible
24 Jul -0.7 01:13:22 10° NW 01:15:31 16° N 01:17:41 10° NE visible
24 Jul -2.0 02:49:43 10° NW 02:52:43 32° NNE 02:55:42 10° E visible
24 Jul -3.3 04:26:09 10° WNW 04:29:13 37° SW 04:32:15 10° SSE visible
24 Jul -3.6 21:05:58 10° SSW 21:09:05 45° SE 21:12:13 10° ENE visible
24 Jul -1.8 22:42:44 10° W 22:45:39 29° NNW 22:48:34 10° NE visible
25 Jul -0.7 00:20:45 10° NW 00:22:53 16° N 00:25:00 10° NE visible
25 Jul -1.4 01:57:28 10° NW 02:00:11 24° NNE 02:02:54 10° ENE visible
25 Jul -4.0 03:33:40 10° WNW 03:36:56 73° SW 03:40:10 10° SE visible
25 Jul -2.6 21:50:01 10° WSW 21:53:09 44° NNW 21:56:18 10° NE visible
25 Jul -0.8 23:27:58 10° NW 23:30:14 17° N 23:32:30 10° NE visible
26 Jul -0.9 01:05:10 10° NW 01:06:44 17° N 01:06:44 17° N visible
26 Jul -3.7 20:57:28 10° WSW 21:00:43 77° NNW 21:03:58 10° NE visible
26 Jul -1.1 22:35:05 10° WNW 22:37:35 20° NNW 22:40:08 10° NE visible
27 Jul -0.9 00:12:45 10° NW 00:14:56 17° N 00:15:27 16° NNE visible
27 Jul -1.5 21:42:11 10° W 21:45:00 26° NNW 21:47:49 10° NE visible
27 Jul -0.8 23:20:09 10° NW 23:22:16 16° N 23:24:22 10° NE visible
28 Jul -0.6 00:56:43 10° NW 00:57:03 12° NW 00:57:03 12° NW visible
28 Jul -2.2 20:49:23 10° W 20:52:27 38° NNW 20:55:31 10° NE visible
28 Jul -0.9 22:27:22 10° NW 22:29:34 17° N 22:31:46 10° NE visible
29 Jul -1.0 00:04:24 10° NW 00:06:08 19° N 00:06:08 19° N visible
29 Jul -1.1 21:34:28 10° WNW 21:36:53 19° NNW 21:39:19 10° NE visible
29 Jul -1.2 23:11:59 10° NW 23:14:15 17° N 23:15:17 15° NNE visible
